EW5026 Weather Reports


Display with metric or nautical units.
time (UTC)temp
F
wind
direction
speed
MPH
gust
MPH
rain 1hr
in
rain 24hr
in
rain mn
in
humidity
%
barometer
mb
20260506185024 56 287 9.0 18.0 0.00 0.00 0.00 46 1013.6
20260506184523 56 304 7.0 14.0 0.00 0.00 0.00 43 1013.6
20260506184023 56 255 8.0 14.0 0.00 0.00 0.00 46 1013.6
20260506183523 56 269 6.0 15.0 0.00 0.00 0.00 46 1013.6
20260506183030 56 264 11.0 15.0 0.00 0.00 0.00 46 1013.5
20260506182522 56 265 9.0 16.0 0.00 0.00 0.00 45 1013.5
20260506182022 56 302 8.0 16.0 0.00 0.00 0.00 46 1013.5
20260506181522 56 267 10.0 14.0 0.00 0.00 0.00 44 1013.4
20260506181023 58 230 8.0 13.0 0.00 0.00 0.00 44 1013.4
20260506180521 57 265 6.0 13.0 0.00 0.00 0.00 44 1013.5
20260506180021 56 224 7.0 13.0 0.00 0.00 0.00 48 1013.6
20260506175522 56 284 9.0 13.0 0.00 0.00 0.00 43 1013.7
20260506175020 57 270 7.0 13.0 0.00 0.00 0.00 47 1013.6
20260506174520 56 273 4.0 9.0 0.00 0.00 0.00 43 1013.6
20260506174021 55 275 4.0 13.0 0.00 0.00 0.00 51 1013.8
20260506173520 55 247 4.0 13.0 0.00 0.00 0.00 47 1013.9
20260506173020 55 251 7.0 10.0 0.00 0.00 0.00 48 1013.9
20260506172521 56 279 4.0 13.0 0.00 0.00 0.00 48 1014.0
20260506172019 57 209 8.0 12.0 0.00 0.00 0.00 48 1013.9
20260506171525 56 238 4.0 11.0 0.00 0.00 0.00 48 1014.0
20260506171021 56 228 6.0 11.0 0.00 0.00 0.00 43 1014.0
20260506170519 56 211 8.0 10.0 0.00 0.00 0.00 46 1014.0
20260506170018 55 205 3.0 11.0 0.00 0.00 0.00 45 1014.0
20260506165515 55 236 6.0 11.0 0.00 0.00 0.00 47 1014.0
20260506165014 55 214 0.0 8.0 0.00 0.00 0.00 51 1013.9
20260506164513 55 144 4.0 8.0 0.00 0.00 0.00 47 1013.9
20260506164018 54 199 3.0 6.0 0.00 0.00 0.00 49 1013.7
20260506163512 54 294 2.0 10.0 0.00 0.00 0.00 49 1013.7
20260506163013 54 267 4.0 10.0 0.00 0.00 0.00 49 1013.7
20260506162511 54 287 2.0 8.0 0.00 0.00 0.00 48 1013.7
20260506162013 54 208 4.0 8.0 0.00 0.00 0.00 48 1013.6
20260506161511 54 297 3.0 6.0 0.00 0.00 0.00 46 1013.7
20260506161009 54 199 2.0 5.0 0.00 0.00 0.00 50 1013.7
20260506160517 54 260 3.0 5.0 0.00 0.00 0.00 52 1013.7
20260506160010 54 311 1.0 5.0 0.00 0.00 0.00 51 1013.6
20260506155510 54 32 1.0 3.0 0.00 0.00 0.00 48 1013.5
20260506155009 54 351 2.0 3.0 0.00 0.00 0.00 48 1013.6
20260506154508 53 138 1.0 3.0 0.00 0.00 0.00 53 1013.5
20260506154006 53 138 0.0 3.0 0.00 0.00 0.00 57 1013.5
20260506153506 52 184 1.0 2.0 0.00 0.00 0.00 53 1013.5
20260506153014 52 184 0.0 2.0 0.00 0.00 0.00 52 1013.5
20260506152513 52 184 0.0 4.0 0.00 0.00 0.00 56 1013.4
20260506152015 52 184 1.0 4.0 0.00 0.00 0.00 54 1013.5
20260506151513 52 184 1.0 4.0 0.00 0.00 0.00 56 1013.6
20260506151014 51 80 0.0 2.0 0.00 0.00 0.00 56 1013.7
20260506150510 51 155 0.0 2.0 0.00 0.00 0.00 54 1013.6
20260506150009 50 155 0.0 2.0 0.00 0.00 0.00 59 1013.7
20260506145508 50 155 1.0 4.0 0.00 0.01 0.00 58 1013.7
20260506145007 50 155 1.0 4.0 0.00 0.01 0.00 59 1013.7
20260506144507 50 155 1.0 3.0 0.00 0.01 0.00 62 1013.6
20260506144006 49 155 0.0 3.0 0.00 0.01 0.00 62 1013.7
20260506143506 49 155 1.0 4.0 0.00 0.01 0.00 61 1013.7
20260506143010 49 155 2.0 4.0 0.00 0.01 0.00 65 1013.6
20260506142506 49 155 1.0 3.0 0.00 0.01 0.00 63 1013.7
20260506142005 49 155 2.0 3.0 0.00 0.01 0.00 61 1013.7
20260506141508 49 155 0.0 3.0 0.00 0.01 0.00 65 1013.7
20260506141006 48 155 2.0 3.0 0.00 0.01 0.00 65 1013.9
20260506140504 48 340 0.0 2.0 0.00 0.01 0.00 65 1013.8
20260506140004 48 340 1.0 2.0 0.00 0.01 0.00 64 1013.8
20260506135503 48 340 1.0 3.0 0.00 0.01 0.00 66 1013.8
20260506135004 48 340 1.0 3.0 0.00 0.01 0.00 66 1013.7
20260506134501 48 340 1.0 2.0 0.00 0.01 0.00 68 1013.6
20260506134001 47 340 0.0 2.0 0.00 0.01 0.00 70 1013.6
20260506133600 47 340 0.0 3.0 0.00 0.01 0.00 70 1013.5
20260506133058 47 340 1.0 4.0 0.00 0.01 0.00 69 1013.3
20260506132557 47 340 2.0 4.0 0.00 0.01 0.00 71 1013.2
20260506132057 47 340 2.0 4.0 0.00 0.01 0.00 73 1013.1
20260506131557 47 340 2.0 4.0 0.00 0.01 0.00 74 1013.1
20260506131059 46 340 2.0 4.0 0.00 0.01 0.00 75 1012.9
20260506130558 46 340 2.0 4.0 0.00 0.01 0.00 75 1012.9
20260506130100 46 340 2.0 5.0 0.00 0.01 0.00 75 1012.9
20260506125556 46 327 3.0 5.0 0.00 0.01 0.00 74 1012.9
20260506125054 46 341 3.0 5.0 0.00 0.01 0.00 74 1012.7
20260506124553 46 344 3.0 5.0 0.00 0.01 0.00 76 1012.6
20260506124053 45 331 3.0 6.0 0.00 0.01 0.00 78 1012.7
20260506123555 45 327 4.0 6.0 0.00 0.01 0.00 79 1012.6
20260506123052 45 342 4.0 6.0 0.00 0.01 0.00 79 1012.3
20260506122549 45 313 3.0 5.0 0.00 0.01 0.00 80 1012.1
20260506122051 45 350 2.0 5.0 0.00 0.01 0.00 78 1012.1
20260506121553 44 336 2.0 4.0 0.00 0.01 0.00 80 1012.0
20260506121049 44 334 1.0 4.0 0.00 0.01 0.00 81 1011.9
20260506120548 44 334 2.0 4.0 0.00 0.01 0.00 81 1011.9
20260506120047 43 176 0.0 2.0 0.00 0.01 0.00 79 1011.8
20260506115546 43 176 0.0 2.0 0.00 0.01 0.00 81 1011.7
20260506115045 43 325 0.0 2.0 0.00 0.01 0.00 82 1011.7
20260506114548 43 325 0.0 0.0 0.00 0.01 0.00 84 1011.6
20260506114046 42 325 0.0 2.0 0.00 0.01 0.00 85 1011.5
20260506113546 42 325 0.0 2.0 0.00 0.01 0.00 85 1011.6
20260506113045 42 336 0.0 1.0 0.00 0.01 0.00 85 1011.6
20260506112543 41 336 0.0 0.0 0.00 0.01 0.00 86 1011.6
20260506112045 41 336 0.0 0.0 0.00 0.01 0.00 85 1011.5
20260506111542 41 336 0.0 0.0 0.00 0.01 0.00 84 1011.4
20260506111042 41 336 0.0 0.0 0.00 0.01 0.00 84 1011.2
20260506110545 41 336 0.0 2.0 0.00 0.01 0.00 83 1011.2
20260506110041 41 336 0.0 2.0 0.00 0.01 0.00 82 1011.2
20260506105541 40 336 1.0 3.0 0.00 0.01 0.00 81 1011.0
20260506105041 41 336 1.0 3.0 0.00 0.01 0.00 80 1011.2
20260506104541 41 336 1.0 3.0 0.00 0.01 0.00 79 1011.1
20260506104039 41 336 2.0 3.0 0.00 0.01 0.00 78 1011.0
20260506103538 41 18 1.0 3.0 0.00 0.01 0.00 77 1010.9
20260506103047 41 18 2.0 3.0 0.00 0.01 0.00 76 1010.8
20260506102538 41 18 2.0 3.0 0.00 0.01 0.00 76 1010.8
20260506102037 41 18 1.0 2.0 0.00 0.01 0.00 77 1010.8
20260506101538 41 18 1.0 3.0 0.00 0.01 0.00 77 1010.6
20260506101037 41 18 1.0 3.0 0.00 0.01 0.00 77 1010.5
20260506100539 41 18 2.0 3.0 0.00 0.01 0.00 77 1010.3
20260506100035 41 18 2.0 3.0 0.00 0.01 0.00 77 1010.3
20260506095535 41 18 2.0 3.0 0.00 0.01 0.00 77 1010.3
20260506095034 41 18 1.0 3.0 0.00 0.01 0.00 77 1010.3
20260506094534 42 18 2.0 3.0 0.00 0.01 0.00 76 1010.3
20260506094034 42 18 2.0 3.0 0.00 0.01 0.00 75 1010.3
20260506093533 43 18 2.0 3.0 0.00 0.01 0.00 75 1010.4
20260506093033 43 18 2.0 5.0 0.00 0.01 0.00 74 1010.5
20260506092532 43 18 2.0 5.0 0.00 0.01 0.00 74 1010.5
20260506092033 44 9 3.0 5.0 0.00 0.01 0.00 72 1010.6
20260506091534 44 9 3.0 7.0 0.00 0.01 0.00 71 1010.7
20260506091031 45 5 4.0 7.0 0.00 0.01 0.00 70 1010.6
20260506090530 45 360 4.0 8.0 0.00 0.01 0.00 70 1010.5
20260506090042 44 5 5.0 8.0 0.00 0.01 0.00 71 1010.3
20260506085528 44 5 4.0 7.0 0.00 0.01 0.00 72 1010.3
20260506085028 44 10 4.0 7.0 0.00 0.01 0.00 72 1010.3
20260506084527 44 5 4.0 7.0 0.00 0.01 0.00 72 1010.1
20260506084029 43 355 4.0 7.0 0.00 0.01 0.00 74 1010.1
20260506083526 43 350 4.0 6.0 0.00 0.01 0.00 76 1009.9
20260506083025 43 355 3.0 5.0 0.00 0.01 0.00 78 1009.9
20260506082524 43 343 2.0 4.0 0.00 0.01 0.00 78 1010.0
20260506082027 42 343 3.0 5.0 0.00 0.01 0.00 80 1009.9
20260506081523 42 341 3.0 5.0 0.00 0.01 0.00 81 1009.8
20260506081024 42 320 3.0 4.0 0.00 0.01 0.00 82 1009.8
20260506080522 42 320 2.0 3.0 0.00 0.01 0.00 83 1009.7
20260506073516 45 312 2.0 4.0 0.00 0.01 0.00 77 1009.8
20260506073015 45 310 3.0 4.0 0.00 0.01 0.00 76 1009.7
20260506072514 45 305 3.0 4.0 0.00 0.01 0.00 76 1009.6
20260506072013 45 305 2.0 4.0 0.00 0.01 0.00 78 1009.4
20260506071512 44 305 2.0 4.0 0.00 0.01 0.00 79 1009.4
20260506071013 44 324 2.0 3.0 0.00 0.01 0.00 81 1009.1
20260506070510 45 324 2.0 3.0 0.00 0.01 0.00 80 1008.9
20260506062058 48 311 2.0 4.0 0.00 0.01 0.00 75 1009.1
20260506061602 48 308 1.0 3.0 0.00 0.01 0.00 74 1009.4
20260506061056 48 308 1.0 3.0 0.00 0.01 0.00 75 1009.3
20260506060555 49 308 1.0 3.0 0.00 0.01 0.00 73 1009.4
20260506051048 49 308 0.0 0.0 0.00 0.01 0.00 73 1009.1
20260506050546 49 308 0.0 0.0 0.00 0.01 0.00 74 1009.0
20260506050104 49 308 0.0 0.0 0.00 0.01 0.00 72 1009.1
20260506045046 50 308 0.0 0.0 0.00 0.01 0.01 75 1008.9
20260506044550 50 308 0.0 0.0 0.00 0.01 0.01 69 1008.9
20260506044045 50 308 0.0 0.0 0.00 0.01 0.01 70 1008.8
20260506043545 50 308 0.0 0.0 0.00 0.01 0.01 72 1009.1
20260506043045 50 308 0.0 0.0 0.00 0.01 0.01 69 1008.9
20260506042545 50 308 0.0 0.0 0.00 0.01 0.01 68 1009.0
20260506042045 50 308 0.0 0.0 0.00 0.01 0.01 71 1009.2
20260506041545 50 308 0.0 0.0 0.00 0.01 0.01 70 1009.4
20260506041044 50 308 0.0 1.0 0.00 0.01 0.01 66 1009.2
20260506040544 50 308 0.0 1.0 0.00 0.01 0.01 68 1009.2
20260506040046 50 308 0.0 0.0 0.00 0.01 0.01 70 1009.2
20260506035544 50 308 0.0 0.0 0.00 0.02 0.01 69 1009.4
20260506035044 50 308 0.0 0.0 0.00 0.02 0.01 69 1009.1
20260506034549 50 308 0.0 0.0 0.00 0.02 0.01 69 1009.3
20260506034043 50 308 0.0 0.0 0.00 0.02 0.01 71 1009.4
20260506033543 50 308 0.0 0.0 0.00 0.02 0.01 70 1009.5
20260506033047 51 308 0.0 2.0 0.00 0.02 0.01 71 1009.3
20260506032543 51 308 0.0 3.0 0.00 0.02 0.01 70 1009.4
20260506032042 51 308 1.0 3.0 0.00 0.02 0.01 68 1009.3
20260506031548 51 308 1.0 3.0 0.00 0.02 0.01 67 1009.4
20260506031043 51 308 1.0 2.0 0.00 0.02 0.01 63 1009.1
20260506030540 51 308 1.0 2.0 0.00 0.02 0.01 67 1009.1
20260506030042 51 308 0.0 2.0 0.00 0.02 0.01 64 1009.0
20260506025540 51 308 0.0 2.0 0.00 0.41 0.01 69 1009.0
20260506025038 51 308 1.0 2.0 0.00 0.41 0.01 67 1008.9
20260506024549 52 308 0.0 3.0 0.00 0.41 0.01 64 1008.6
20260506024038 52 308 1.0 4.0 0.00 0.41 0.01 60 1008.6
20260506023541 52 286 2.0 6.0 0.00 0.41 0.01 55 1008.7
20260506023039 52 294 2.0 6.0 0.00 0.41 0.01 56 1008.9
20260506022537 52 289 2.0 5.0 0.00 0.41 0.01 55 1008.8
20260506022037 52 291 2.0 5.0 0.00 0.41 0.01 55 1008.8
20260506021542 52 272 2.0 5.0 0.00 0.41 0.01 54 1008.8
20260506021035 52 292 2.0 4.0 0.00 0.41 0.01 61 1008.6
20260506020535 52 294 2.0 4.0 0.00 0.41 0.01 57 1008.6
20260506020034 52 288 2.0 4.0 0.00 0.41 0.01 53 1008.4
20260506015634 52 296 1.0 3.0 0.00 0.64 0.01 56 1008.3
20260506015034 52 300 1.0 3.0 0.00 0.64 0.01 55 1008.2
20260506014535 52 300 1.0 3.0 0.00 0.64 0.01 56 1008.2
20260506014034 52 294 2.0 5.0 0.00 0.64 0.01 56 1008.2
20260506013534 52 294 2.0 5.0 0.00 0.64 0.01 56 1008.0
20260506013034 52 295 1.0 3.0 0.00 0.64 0.01 58 1008.1
20260506012533 52 299 1.0 4.0 0.00 0.64 0.01 53 1007.8
20260506012033 52 286 2.0 4.0 0.00 0.64 0.01 55 1008.0
20260506011537 52 295 2.0 3.0 0.00 0.64 0.01 58 1007.9
20260506011033 52 295 2.0 3.0 0.00 0.64 0.01 67 1007.7
20260506010533 52 295 2.0 3.0 0.00 0.64 0.01 66 1007.7
20260506010034 52 295 1.0 3.0 0.00 0.64 0.01 68 1007.8
20260506005533 52 295 2.0 4.0 0.00 0.64 0.01 64 1007.8
20260506005032 52 295 2.0 4.0 0.00 0.64 0.01 58 1007.7
20260506004535 52 295 2.0 4.0 0.00 0.64 0.01 64 1007.7
20260506004033 53 298 2.0 5.0 0.00 0.64 0.01 64 1007.7
20260506003532 53 308 2.0 6.0 0.00 0.64 0.01 60 1007.6
20260506003034 53 290 3.0 6.0 0.00 0.64 0.01 53 1007.8
20260506002531 53 273 2.0 4.0 0.00 0.64 0.01 54 1007.8
20260506002031 53 300 2.0 3.0 0.00 0.64 0.01 57 1007.7
20260506001536 53 300 2.0 3.0 0.00 0.64 0.01 61 1007.7
20260506001031 53 300 2.0 5.0 0.00 0.64 0.01 64 1007.6
20260506000531 53 300 2.0 5.0 0.00 0.64 0.01 60 1007.7
20260506000038 53 300 3.0 7.0 0.00 0.64 0.01 58 1007.7
20260505235534 53 321 4.0 8.0 0.00 0.64 0.01 56 1007.4
20260505235031 54 304 4.0 8.0 0.00 0.64 0.01 54 1007.5
20260505234531 54 307 5.0 9.0 0.00 0.64 0.01 53 1007.3
20260505234031 54 302 6.0 9.0 0.00 0.64 0.01 54 1007.4
20260505233532 54 306 5.0 9.0 0.00 0.64 0.01 57 1007.3
20260505233031 54 307 3.0 8.0 0.00 0.64 0.01 59 1007.3
20260505232531 54 297 3.0 6.0 0.00 0.64 0.01 62 1007.4
20260505232036 54 299 4.0 7.0 0.00 0.64 0.01 55 1007.4
20260505231534 54 300 4.0 8.0 0.00 0.64 0.01 53 1007.5
20260505231029 54 304 4.0 8.0 0.00 0.64 0.01 51 1007.5
20260505230529 54 290 4.0 8.0 0.00 0.64 0.01 52 1007.3
20260505230035 54 303 4.0 8.0 0.00 0.64 0.01 53 1007.5
20260505225529 54 300 4.0 8.0 0.00 0.64 0.01 55 1007.5
20260505225029 54 319 5.0 8.0 0.00 0.64 0.01 55 1007.7
20260505224529 54 284 4.0 9.0 0.00 0.64 0.01 49 1007.7
20260505224029 54 300 5.0 10.0 0.00 0.64 0.01 48 1007.8
20260505223528 55 260 5.0 9.0 0.00 0.64 0.01 49 1007.9
20260505223034 55 292 5.0 9.0 0.00 0.64 0.01 48 1008.0
20260505222528 55 307 4.0 10.0 0.00 0.64 0.01 55 1008.0
20260505222028 54 311 5.0 10.0 0.00 0.64 0.01 53 1007.9
20260505221528 54 286 4.0 8.0 0.00 0.64 0.01 53 1008.0
20260505221028 54 267 3.0 8.0 0.00 0.64 0.01 54 1007.9
20260505220527 54 306 6.0 8.0 0.00 0.64 0.01 53 1007.9
20260505220028 54 288 3.0 8.0 0.00 0.64 0.01 50 1007.9
20260505215527 54 280 5.0 9.0 0.00 0.64 0.01 53 1008.0
20260505215027 54 316 5.0 9.0 0.00 0.64 0.01 49 1007.9
20260505214537 55 307 5.0 9.0 0.00 0.64 0.01 57 1008.0
20260505214031 55 321 5.0 9.0 0.00 0.64 0.01 54 1008.1
20260505213526 55 302 6.0 10.0 0.00 0.64 0.01 52 1008.0
20260505213026 55 284 5.0 10.0 0.00 0.64 0.01 51 1008.2
20260505212525 55 286 6.0 10.0 0.00 0.64 0.01 53 1008.1
20260505212029 55 268 6.0 10.0 0.00 0.64 0.01 49 1008.1
20260505211526 55 267 4.0 9.0 0.00 0.64 0.01 58 1008.1
20260505211025 55 314 6.0 10.0 0.00 0.64 0.01 58 1008.2
20260505210525 55 306 6.0 10.0 0.00 0.64 0.01 56 1008.2
20260505210024 54 303 5.0 10.0 0.00 0.64 0.01 55 1008.3
20260505205524 54 295 6.0 10.0 0.00 0.64 0.01 55 1008.3
20260505205024 55 298 7.0 10.0 0.00 0.64 0.01 53 1008.4
20260505204524 55 292 6.0 10.0 0.00 0.64 0.01 56 1008.4
20260505204024 55 294 4.0 8.0 0.00 0.64 0.01 58 1008.4
20260505203525 55 291 5.0 9.0 0.00 0.64 0.01 55 1008.4
20260505203024 55 284 5.0 9.0 0.00 0.64 0.01 55 1008.4
20260505202522 54 275 3.0 8.0 0.00 0.64 0.01 59 1008.5
20260505202022 54 260 5.0 8.0 0.00 0.64 0.01 57 1008.6
20260505201522 54 267 3.0 7.0 0.00 0.64 0.01 59 1008.6
20260505201025 54 288 4.0 8.0 0.00 0.64 0.01 55 1008.6
20260505200523 54 274 4.0 8.0 0.00 0.64 0.01 56 1008.5
20260505200023 54 237 5.0 8.0 0.00 0.64 0.01 56 1008.5
20260505195522 55 268 4.0 8.0 0.00 0.64 0.01 54 1008.4
20260505195022 55 282 3.0 10.0 0.00 0.64 0.01 56 1008.3
20260505194522 55 292 6.0 10.0 0.00 0.64 0.01 55 1008.3
20260505194022 55 284 4.0 10.0 0.00 0.64 0.01 55 1008.2
20260505193521 55 280 7.0 9.0 0.00 0.64 0.01 56 1008.2
20260505193022 55 272 5.0 9.0 0.00 0.64 0.01 55 1008.2
20260505192521 55 310 6.0 10.0 0.00 0.64 0.01 59 1008.2
20260505192021 55 320 5.0 12.0 0.00 0.64 0.01 61 1008.3
20260505191521 55 314 7.0 12.0 0.00 0.64 0.01 56 1008.4
20260505191022 55 315 6.0 10.0 0.00 0.64 0.01 57 1008.4
20260505190520 55 288 5.0 10.0 0.00 0.64 0.01 60 1008.4
20260505190026 55 307 6.0 10.0 0.00 0.64 0.01 55 1008.3
20260505185522 55 296 5.0 12.0 0.00 0.64 0.01 57 1008.5